Location: Unspecified
(0.0000°N, 0.0000°E)
Time: 12:35:16
(UTC+00:00)

Transit 2A - Pass Details

Date: 02 June 2019
Orbit: 593 x 966 km, 66.7° (Epoch: 16 June)

Event Time Altitude Azimuth Distance (km) Brightness Sun altitude
Rises 15:34:01 0° 337° (NNW) 3,167 9.8 33.0°
Reaches altitude 10° 15:36:30 10° 335° (NNW) 2,186 9.2 32.4°
Maximum altitude 15:41:24 73° 251° (WSW) 696 6.6 31.3°
Drops below altitude 10° 15:45:53 10° 166° (SSE) 2,002 7.9 30.3°
Sets 15:48:04 0° 164° (SSE) 2,878 8.6 29.8°
